Terug naar catalogus

STARLINK-35294

ActiefCommunicatieVLEO
NORAD 65755·PAYLOAD·🇺🇸 United States

Gelanceerd Sep 25, 2025 vanaf Cape Canaveral Space Force Station

Loading…

Volgende Passages (komende 24 uur)

TLE

VersSource: CelesTrak SupGP

Epoch: Sep 14, 2026, 14:55 UTC

1 65755C 25216X   26257.62201389  .00065720  00000+0  19418-2 0  2578
2 65755  53.1568 173.2595 0001210 104.9261  87.6931 15.34356171    18

Volg STARLINK-35294 in realtime met AllMySat

Download on the App Store